owner,sensor,date,latitude,longitude,air_temperature,qcFlag 
WAVCIS,ioos:station:WAVCIS:CSI03:1,2008-09-01T00:00:00Z,29.4412,-92.0613,30.08,11111222 
WAVCIS,ioos:station:WAVCIS:CSI03:1,2008-09-01T01:00:00Z,29.4412,-92.0613,28.05,11111222 
WAVCIS,ioos:station:WAVCIS:CSI03:1,2008-09-01T02:00:00Z,29.4412,-92.0613,27.53,11111222 
WAVCIS,ioos:station:WAVCIS:CSI03:1,2008-09-01T03:00:00Z,29.4412,-92.0613,27.97,11111222 
WAVCIS,ioos:station:WAVCIS:CSI03:1,2008-09-01T04:00:00Z,29.4412,-92.0613,26.1,11111222 
WAVCIS,ioos:station:WAVCIS:CSI03:1,2008-09-01T05:00:00Z,29.4412,-92.0613,26.14,11111222 
WAVCIS,ioos:station:WAVCIS:CSI03:1,2008-09-01T06:00:00Z,29.4412,-92.0613,26.77,11111222 
WAVCIS,ioos:station:WAVCIS:CSI03:1,2008-09-01T07:00:00Z,29.4412,-92.0613,26.15,11111222 
WAVCIS,ioos:station:WAVCIS:CSI03:1,2008-09-01T08:00:00Z,29.4412,-92.0613,26.31,11111222 
WAVCIS,ioos:station:WAVCIS:CSI03:1,2008-09-01T09:00:00Z,29.4412,-92.0613,26.69,11111222 
WAVCIS,ioos:station:WAVCIS:CSI03:1,2008-09-01T14:00:00Z,29.4412,-92.0613,25.68,11111222 
WAVCIS,ioos:station:WAVCIS:CSI03:1,2008-09-01T15:00:00Z,29.4412,-92.0613,24.43,11111222 
WAVCIS,ioos:station:WAVCIS:CSI03:1,2008-09-01T16:00:00Z,29.4412,-92.0613,24.1,11111222 
WAVCIS,ioos:station:WAVCIS:CSI03:1,2008-09-01T17:00:00Z,29.4412,-92.0613,24.72,11111222 
WAVCIS,ioos:station:WAVCIS:CSI03:1,2008-09-01T18:00:00Z,29.4412,-92.0613,24.88,11111222 
WAVCIS,ioos:station:WAVCIS:CSI03:1,2008-09-01T19:00:00Z,29.4412,-92.0613,25.17,11111222 
WAVCIS,ioos:station:WAVCIS:CSI03:1,2008-09-01T20:00:00Z,29.4412,-92.0613,25.73,11111222 
WAVCIS,ioos:station:WAVCIS:CSI03:1,2008-09-01T21:00:00Z,29.4412,-92.0613,26.65,11111222 
WAVCIS,ioos:station:WAVCIS:CSI03:1,2008-09-01T22:00:00Z,29.4412,-92.0613,27.02,11111222 
WAVCIS,ioos:station:WAVCIS:CSI03:1,2008-09-01T23:00:00Z,29.4412,-92.0613,27.34,11111222 
WAVCIS,ioos:station:WAVCIS:CSI03:1,2008-09-02T00:00:00Z,29.4412,-92.0613,27.04,11111222 
WAVCIS,ioos:station:WAVCIS:CSI03:1,2008-09-02T01:00:00Z,29.4412,-92.0613,27.17,11111222 
WAVCIS,ioos:station:WAVCIS:CSI03:1,2008-09-02T02:00:00Z,29.4412,-92.0613,27.84,11111222 
WAVCIS,ioos:station:WAVCIS:CSI03:1,2008-09-02T03:00:00Z,29.4412,-92.0613,27.97,11111222 
WAVCIS,ioos:station:WAVCIS:CSI03:1,2008-09-02T04:00:00Z,29.4412,-92.0613,27.93,11111222 
WAVCIS,ioos:station:WAVCIS:CSI03:1,2008-09-02T05:00:00Z,29.4412,-92.0613,28.06,11111222 
WAVCIS,ioos:station:WAVCIS:CSI03:1,2008-09-02T06:00:00Z,29.4412,-92.0613,28.43,11111222 
WAVCIS,ioos:station:WAVCIS:CSI03:1,2008-09-02T07:00:00Z,29.4412,-92.0613,28.59,11111222 
WAVCIS,ioos:station:WAVCIS:CSI03:1,2008-09-02T08:00:00Z,29.4412,-92.0613,28.42,11111222 
WAVCIS,ioos:station:WAVCIS:CSI03:1,2008-09-02T09:00:00Z,29.4412,-92.0613,28.19,11111222 
WAVCIS,ioos:station:WAVCIS:CSI03:1,2008-09-02T10:00:00Z,29.4412,-92.0613,28.6,11111222 
WAVCIS,ioos:station:WAVCIS:CSI03:1,2008-09-02T11:00:00Z,29.4412,-92.0613,28.31,11111222 
WAVCIS,ioos:station:WAVCIS:CSI03:1,2008-09-02T12:00:00Z,29.4412,-92.0613,28.55,11111222 
WAVCIS,ioos:station:WAVCIS:CSI03:1,2008-09-02T13:00:00Z,29.4412,-92.0613,28.66,11111222 
WAVCIS,ioos:station:WAVCIS:CSI03:1,2008-09-02T14:00:00Z,29.4412,-92.0613,28.03,11111222 
WAVCIS,ioos:station:WAVCIS:CSI03:1,2008-09-02T15:00:00Z,29.4412,-92.0613,28.88,11111222 
WAVCIS,ioos:station:WAVCIS:CSI03:1,2008-09-02T16:00:00Z,29.4412,-92.0613,29.26,11111222 
WAVCIS,ioos:station:WAVCIS:CSI03:1,2008-09-02T17:00:00Z,29.4412,-92.0613,29.22,11111222 
WAVCIS,ioos:station:WAVCIS:CSI03:1,2008-09-02T18:00:00Z,29.4412,-92.0613,29.08,11111222 
WAVCIS,ioos:station:WAVCIS:CSI03:1,2008-09-02T19:00:00Z,29.4412,-92.0613,29.23,11111222 
WAVCIS,ioos:station:WAVCIS:CSI03:1,2008-09-02T20:00:00Z,29.4412,-92.0613,29.21,11111222 
WAVCIS,ioos:station:WAVCIS:CSI03:1,2008-09-02T21:00:00Z,29.4412,-92.0613,29.15,11111222 
WAVCIS,ioos:station:WAVCIS:CSI03:1,2008-09-02T22:00:00Z,29.4412,-92.0613,29.18,11111222 
WAVCIS,ioos:station:WAVCIS:CSI03:1,2008-09-02T23:00:00Z,29.4412,-92.0613,29.24,11111222 
WAVCIS,ioos:station:WAVCIS:CSI03:1,2008-09-03T00:00:00Z,29.4412,-92.0613,28.97,11111222 
WAVCIS,ioos:station:WAVCIS:CSI03:1,2008-09-03T01:00:00Z,29.4412,-92.0613,28.81,11111222 
WAVCIS,ioos:station:WAVCIS:CSI03:1,2008-09-03T02:00:00Z,29.4412,-92.0613,28.71,11111222 
WAVCIS,ioos:station:WAVCIS:CSI03:1,2008-09-03T03:00:00Z,29.4412,-92.0613,28.5,11111222 
WAVCIS,ioos:station:WAVCIS:CSI03:1,2008-09-03T04:00:00Z,29.4412,-92.0613,28.38,11111222 
WAVCIS,ioos:station:WAVCIS:CSI03:1,2008-09-03T05:00:00Z,29.4412,-92.0613,28.37,11111222 
WAVCIS,ioos:station:WAVCIS:CSI03:1,2008-09-03T06:00:00Z,29.4412,-92.0613,28.34,11111222 
WAVCIS,ioos:station:WAVCIS:CSI03:1,2008-09-03T07:00:00Z,29.4412,-92.0613,28.28,11111222 
WAVCIS,ioos:station:WAVCIS:CSI03:1,2008-09-03T08:00:00Z,29.4412,-92.0613,28.25,11111222 
WAVCIS,ioos:station:WAVCIS:CSI03:1,2008-09-03T09:00:00Z,29.4412,-92.0613,28.29,11111222 
WAVCIS,ioos:station:WAVCIS:CSI03:1,2008-09-03T10:00:00Z,29.4412,-92.0613,28.21,11111222 
WAVCIS,ioos:station:WAVCIS:CSI03:1,2008-09-03T11:00:00Z,29.4412,-92.0613,28.2,11111222 
WAVCIS,ioos:station:WAVCIS:CSI03:1,2008-09-03T12:00:00Z,29.4412,-92.0613,28.28,11111222 
WAVCIS,ioos:station:WAVCIS:CSI03:1,2008-09-03T13:00:00Z,29.4412,-92.0613,28.32,11111222 
WAVCIS,ioos:station:WAVCIS:CSI03:1,2008-09-03T14:00:00Z,29.4412,-92.0613,28.26,11111222 
WAVCIS,ioos:station:WAVCIS:CSI03:1,2008-09-03T15:00:00Z,29.4412,-92.0613,28.71,11111222 
WAVCIS,ioos:station:WAVCIS:CSI03:1,2008-09-03T16:00:00Z,29.4412,-92.0613,28.83,11111222 
WAVCIS,ioos:station:WAVCIS:CSI03:1,2008-09-03T17:00:00Z,29.4412,-92.0613,29.17,11111222 
WAVCIS,ioos:station:WAVCIS:CSI03:1,2008-09-03T18:00:00Z,29.4412,-92.0613,28.93,11111222 
WAVCIS,ioos:station:WAVCIS:CSI03:1,2008-09-03T19:00:00Z,29.4412,-92.0613,28.75,11111222 
WAVCIS,ioos:station:WAVCIS:CSI03:1,2008-09-03T20:00:00Z,29.4412,-92.0613,28.92,11111222 
WAVCIS,ioos:station:WAVCIS:CSI03:1,2008-09-03T21:00:00Z,29.4412,-92.0613,29.06,11111222 
WAVCIS,ioos:station:WAVCIS:CSI03:1,2008-09-03T22:00:00Z,29.4412,-92.0613,29.08,11111222 
WAVCIS,ioos:station:WAVCIS:CSI03:1,2008-09-03T23:00:00Z,29.4412,-92.0613,29.07,11111222 
WAVCIS,ioos:station:WAVCIS:CSI03:1,2008-09-04T00:00:00Z,29.4412,-92.0613,28.77,11111222 
WAVCIS,ioos:station:WAVCIS:CSI03:1,2008-09-04T01:00:00Z,29.4412,-92.0613,28.53,11111222 
WAVCIS,ioos:station:WAVCIS:CSI03:1,2008-09-04T02:00:00Z,29.4412,-92.0613,28.55,11111222 
WAVCIS,ioos:station:WAVCIS:CSI03:1,2008-09-04T03:00:00Z,29.4412,-92.0613,28.49,11111222 
WAVCIS,ioos:station:WAVCIS:CSI03:1,2008-09-04T04:00:00Z,29.4412,-92.0613,28.48,11111222 
WAVCIS,ioos:station:WAVCIS:CSI03:1,2008-09-04T05:00:00Z,29.4412,-92.0613,28.34,11111222 
WAVCIS,ioos:station:WAVCIS:CSI03:1,2008-09-04T06:00:00Z,29.4412,-92.0613,28.32,11111222 
WAVCIS,ioos:station:WAVCIS:CSI03:1,2008-09-04T07:00:00Z,29.4412,-92.0613,28.3,11111222 
WAVCIS,ioos:station:WAVCIS:CSI03:1,2008-09-04T08:00:00Z,29.4412,-92.0613,28.26,11111222 
WAVCIS,ioos:station:WAVCIS:CSI03:1,2008-09-04T09:00:00Z,29.4412,-92.0613,28.26,11111222 
WAVCIS,ioos:station:WAVCIS:CSI03:1,2008-09-04T10:00:00Z,29.4412,-92.0613,28.24,11111222 
WAVCIS,ioos:station:WAVCIS:CSI03:1,2008-09-04T11:00:00Z,29.4412,-92.0613,28.32,11111222 
WAVCIS,ioos:station:WAVCIS:CSI03:1,2008-09-04T12:00:00Z,29.4412,-92.0613,24.48,11111222 
WAVCIS,ioos:station:WAVCIS:CSI03:1,2008-09-04T13:00:00Z,29.4412,-92.0613,24.93,11111222 
WAVCIS,ioos:station:WAVCIS:CSI03:1,2008-09-04T14:00:00Z,29.4412,-92.0613,26.16,11111222 
WAVCIS,ioos:station:WAVCIS:CSI03:1,2008-09-04T15:00:00Z,29.4412,-92.0613,26.34,11111222 
WAVCIS,ioos:station:WAVCIS:CSI03:1,2008-09-04T16:00:00Z,29.4412,-92.0613,26.73,11111222 
WAVCIS,ioos:station:WAVCIS:CSI03:1,2008-09-04T17:00:00Z,29.4412,-92.0613,27.05,11111222 
WAVCIS,ioos:station:WAVCIS:CSI03:1,2008-09-04T18:00:00Z,29.4412,-92.0613,27.37,11111222 
WAVCIS,ioos:station:WAVCIS:CSI03:1,2008-09-04T19:00:00Z,29.4412,-92.0613,27.65,11111222 
WAVCIS,ioos:station:WAVCIS:CSI03:1,2008-09-04T20:00:00Z,29.4412,-92.0613,27.95,11111222 
WAVCIS,ioos:station:WAVCIS:CSI03:1,2008-09-04T21:00:00Z,29.4412,-92.0613,27.6,11111222 
WAVCIS,ioos:station:WAVCIS:CSI03:1,2008-09-04T22:00:00Z,29.4412,-92.0613,27.77,11111222 
WAVCIS,ioos:station:WAVCIS:CSI03:1,2008-09-04T23:00:00Z,29.4412,-92.0613,28.28,11111222 
WAVCIS,ioos:station:WAVCIS:CSI03:1,2008-09-05T00:00:00Z,29.4412,-92.0613,28.21,11111222 
WAVCIS,ioos:station:WAVCIS:CSI03:1,2008-09-05T01:00:00Z,29.4412,-92.0613,27.77,11111222 
WAVCIS,ioos:station:WAVCIS:CSI03:1,2008-09-05T02:00:00Z,29.4412,-92.0613,27.66,11111222 
WAVCIS,ioos:station:WAVCIS:CSI03:1,2008-09-05T03:00:00Z,29.4412,-92.0613,27.6,11111222 
WAVCIS,ioos:station:WAVCIS:CSI03:1,2008-09-05T04:00:00Z,29.4412,-92.0613,25.33,11111222 
WAVCIS,ioos:station:WAVCIS:CSI03:1,2008-09-05T05:00:00Z,29.4412,-92.0613,25.39,11111222 
WAVCIS,ioos:station:WAVCIS:CSI03:1,2008-09-05T06:00:00Z,29.4412,-92.0613,25.08,11111222 
WAVCIS,ioos:station:WAVCIS:CSI03:1,2008-09-05T07:00:00Z,29.4412,-92.0613,24.67,11111222 
WAVCIS,ioos:station:WAVCIS:CSI03:1,2008-09-05T08:00:00Z,29.4412,-92.0613,24.29,11111222 
WAVCIS,ioos:station:WAVCIS:CSI03:1,2008-09-07T01:00:00Z,29.4412,-92.0613,25.91,11111222 
WAVCIS,ioos:station:WAVCIS:CSI03:1,2008-09-07T02:00:00Z,29.4412,-92.0613,25.6,11111222 
WAVCIS,ioos:station:WAVCIS:CSI03:1,2008-09-07T03:00:00Z,29.4412,-92.0613,25.26,11111222 
WAVCIS,ioos:station:WAVCIS:CSI03:1,2008-09-07T04:00:00Z,29.4412,-92.0613,25.16,11111222 
WAVCIS,ioos:station:WAVCIS:CSI03:1,2008-09-07T05:00:00Z,29.4412,-92.0613,25.21,11111222 
WAVCIS,ioos:station:WAVCIS:CSI03:1,2008-09-07T06:00:00Z,29.4412,-92.0613,25.16,11111222 
WAVCIS,ioos:station:WAVCIS:CSI03:1,2008-09-07T07:00:00Z,29.4412,-92.0613,25.18,11111222 
WAVCIS,ioos:station:WAVCIS:CSI03:1,2008-09-07T08:00:00Z,29.4412,-92.0613,25.24,11111222 
WAVCIS,ioos:station:WAVCIS:CSI03:1,2008-09-07T09:00:00Z,29.4412,-92.0613,25.15,11111222 
WAVCIS,ioos:station:WAVCIS:CSI03:1,2008-09-07T10:00:00Z,29.4412,-92.0613,25.2,11111222 
WAVCIS,ioos:station:WAVCIS:CSI03:1,2008-09-07T11:00:00Z,29.4412,-92.0613,24.94,11111222 
WAVCIS,ioos:station:WAVCIS:CSI03:1,2008-09-07T12:00:00Z,29.4412,-92.0613,24.9,11111222 
WAVCIS,ioos:station:WAVCIS:CSI03:1,2008-09-07T13:00:00Z,29.4412,-92.0613,25.09,11111222 
WAVCIS,ioos:station:WAVCIS:CSI03:1,2008-09-07T14:00:00Z,29.4412,-92.0613,24.55,11111222 
WAVCIS,ioos:station:WAVCIS:CSI03:1,2008-09-07T15:00:00Z,29.4412,-92.0613,24.54,11111222 
WAVCIS,ioos:station:WAVCIS:CSI03:1,2008-09-07T16:00:00Z,29.4412,-92.0613,25.31,11111222 
WAVCIS,ioos:station:WAVCIS:CSI03:1,2008-09-07T17:00:00Z,29.4412,-92.0613,26.21,11111222 
WAVCIS,ioos:station:WAVCIS:CSI03:1,2008-09-07T18:00:00Z,29.4412,-92.0613,26.81,11111222 
WAVCIS,ioos:station:WAVCIS:CSI03:1,2008-09-07T19:00:00Z,29.4412,-92.0613,27.31,11111222 
WAVCIS,ioos:station:WAVCIS:CSI03:1,2008-09-07T20:00:00Z,29.4412,-92.0613,27.4,11111222 
WAVCIS,ioos:station:WAVCIS:CSI03:1,2008-09-07T21:00:00Z,29.4412,-92.0613,27.61,11111222 
WAVCIS,ioos:station:WAVCIS:CSI03:1,2008-09-07T22:00:00Z,29.4412,-92.0613,27.88,11111222 
WAVCIS,ioos:station:WAVCIS:CSI03:1,2008-09-07T23:00:00Z,29.4412,-92.0613,28.47,11111222 
WAVCIS,ioos:station:WAVCIS:CSI03:1,2008-09-08T00:00:00Z,29.4412,-92.0613,28.39,11111222 
WAVCIS,ioos:station:WAVCIS:CSI03:1,2008-09-08T01:00:00Z,29.4412,-92.0613,27.82,11111222 
WAVCIS,ioos:station:WAVCIS:CSI03:1,2008-09-08T02:00:00Z,29.4412,-92.0613,27.65,11111222 
WAVCIS,ioos:station:WAVCIS:CSI03:1,2008-09-08T03:00:00Z,29.4412,-92.0613,27.65,11111222 
WAVCIS,ioos:station:WAVCIS:CSI03:1,2008-09-08T04:00:00Z,29.4412,-92.0613,27.62,11111222 
WAVCIS,ioos:station:WAVCIS:CSI03:1,2008-09-08T05:00:00Z,29.4412,-92.0613,27.76,11111222 
WAVCIS,ioos:station:WAVCIS:CSI03:1,2008-09-08T06:00:00Z,29.4412,-92.0613,27.55,11111222 
WAVCIS,ioos:station:WAVCIS:CSI03:1,2008-09-08T07:00:00Z,29.4412,-92.0613,27.51,11111222 
WAVCIS,ioos:station:WAVCIS:CSI03:1,2008-09-08T08:00:00Z,29.4412,-92.0613,27.57,11111222 
WAVCIS,ioos:station:WAVCIS:CSI03:1,2008-09-08T09:00:00Z,29.4412,-92.0613,27.56,11111222 
WAVCIS,ioos:station:WAVCIS:CSI03:1,2008-09-08T10:00:00Z,29.4412,-92.0613,27.42,11111222 
WAVCIS,ioos:station:WAVCIS:CSI03:1,2008-09-08T11:00:00Z,29.4412,-92.0613,27.41,11111222 
WAVCIS,ioos:station:WAVCIS:CSI03:1,2008-09-08T12:00:00Z,29.4412,-92.0613,27.33,11111222 
WAVCIS,ioos:station:WAVCIS:CSI03:1,2008-09-08T13:00:00Z,29.4412,-92.0613,27.45,11111222 
WAVCIS,ioos:station:WAVCIS:CSI03:1,2008-09-08T14:00:00Z,29.4412,-92.0613,27.54,11111222 
WAVCIS,ioos:station:WAVCIS:CSI03:1,2008-09-08T15:00:00Z,29.4412,-92.0613,27.52,11111222 
WAVCIS,ioos:station:WAVCIS:CSI03:1,2008-09-08T16:00:00Z,29.4412,-92.0613,27.47,11111222 
WAVCIS,ioos:station:WAVCIS:CSI03:1,2008-09-08T17:00:00Z,29.4412,-92.0613,27.45,11111222 
WAVCIS,ioos:station:WAVCIS:CSI03:1,2008-09-08T18:00:00Z,29.4412,-92.0613,27.69,11111222 
WAVCIS,ioos:station:WAVCIS:CSI03:1,2008-09-08T19:00:00Z,29.4412,-92.0613,28.0,11111222 
WAVCIS,ioos:station:WAVCIS:CSI03:1,2008-09-08T20:00:00Z,29.4412,-92.0613,28.33,11111222 
WAVCIS,ioos:station:WAVCIS:CSI03:1,2008-09-08T21:00:00Z,29.4412,-92.0613,28.57,11111222 
WAVCIS,ioos:station:WAVCIS:CSI03:1,2008-09-08T22:00:00Z,29.4412,-92.0613,28.69,11111222 
WAVCIS,ioos:station:WAVCIS:CSI03:1,2008-09-08T23:00:00Z,29.4412,-92.0613,29.11,11111222 
WAVCIS,ioos:station:WAVCIS:CSI03:1,2008-09-09T00:00:00Z,29.4412,-92.0613,29.47,11111222 
WAVCIS,ioos:station:WAVCIS:CSI03:1,2008-09-09T01:00:00Z,29.4412,-92.0613,28.36,11111222 
WAVCIS,ioos:station:WAVCIS:CSI03:1,2008-09-09T02:00:00Z,29.4412,-92.0613,28.16,11111222 
WAVCIS,ioos:station:WAVCIS:CSI03:1,2008-09-09T03:00:00Z,29.4412,-92.0613,28.04,11111222 
WAVCIS,ioos:station:WAVCIS:CSI03:1,2008-09-09T04:00:00Z,29.4412,-92.0613,27.88,11111222 
WAVCIS,ioos:station:WAVCIS:CSI03:1,2008-09-09T05:00:00Z,29.4412,-92.0613,27.81,11111222 
WAVCIS,ioos:station:WAVCIS:CSI03:1,2008-09-09T06:00:00Z,29.4412,-92.0613,27.69,11111222 
WAVCIS,ioos:station:WAVCIS:CSI03:1,2008-09-09T07:00:00Z,29.4412,-92.0613,27.66,11111222 
WAVCIS,ioos:station:WAVCIS:CSI03:1,2008-09-09T08:00:00Z,29.4412,-92.0613,27.41,11111222 
WAVCIS,ioos:station:WAVCIS:CSI03:1,2008-09-09T09:00:00Z,29.4412,-92.0613,26.76,11111222 
WAVCIS,ioos:station:WAVCIS:CSI03:1,2008-09-09T10:00:00Z,29.4412,-92.0613,26.63,11111222 
WAVCIS,ioos:station:WAVCIS:CSI03:1,2008-09-09T11:00:00Z,29.4412,-92.0613,26.48,11111222 
WAVCIS,ioos:station:WAVCIS:CSI03:1,2008-09-09T12:00:00Z,29.4412,-92.0613,26.55,11111222 
WAVCIS,ioos:station:WAVCIS:CSI03:1,2008-09-09T13:00:00Z,29.4412,-92.0613,26.83,11111222 
WAVCIS,ioos:station:WAVCIS:CSI03:1,2008-09-09T14:00:00Z,29.4412,-92.0613,27.23,11111222 
WAVCIS,ioos:station:WAVCIS:CSI03:1,2008-09-09T15:00:00Z,29.4412,-92.0613,27.47,11111222 
WAVCIS,ioos:station:WAVCIS:CSI03:1,2008-09-09T16:00:00Z,29.4412,-92.0613,28.05,11111222 
WAVCIS,ioos:station:WAVCIS:CSI03:1,2008-09-09T17:00:00Z,29.4412,-92.0613,27.98,11111222 
WAVCIS,ioos:station:WAVCIS:CSI03:1,2008-09-09T18:00:00Z,29.4412,-92.0613,28.41,11111222 
WAVCIS,ioos:station:WAVCIS:CSI03:1,2008-09-09T19:00:00Z,29.4412,-92.0613,28.7,11111222 
WAVCIS,ioos:station:WAVCIS:CSI03:1,2008-09-09T20:00:00Z,29.4412,-92.0613,28.82,11111222 
WAVCIS,ioos:station:WAVCIS:CSI03:1,2008-09-09T21:00:00Z,29.4412,-92.0613,28.96,11111222 
WAVCIS,ioos:station:WAVCIS:CSI03:1,2008-09-09T22:00:00Z,29.4412,-92.0613,29.47,11111222 
WAVCIS,ioos:station:WAVCIS:CSI03:1,2008-09-09T23:00:00Z,29.4412,-92.0613,29.04,11111222 
WAVCIS,ioos:station:WAVCIS:CSI03:1,2008-09-10T00:00:00Z,29.4412,-92.0613,29.05,11111222 
WAVCIS,ioos:station:WAVCIS:CSI03:1,2008-09-10T01:00:00Z,29.4412,-92.0613,28.57,11111222 
WAVCIS,ioos:station:WAVCIS:CSI03:1,2008-09-10T02:00:00Z,29.4412,-92.0613,28.39,11111222 
WAVCIS,ioos:station:WAVCIS:CSI03:1,2008-09-10T03:00:00Z,29.4412,-92.0613,28.6,11111222 
WAVCIS,ioos:station:WAVCIS:CSI03:1,2008-09-10T04:00:00Z,29.4412,-92.0613,28.31,11111222 
WAVCIS,ioos:station:WAVCIS:CSI03:1,2008-09-10T05:00:00Z,29.4412,-92.0613,27.89,11111222 
WAVCIS,ioos:station:WAVCIS:CSI03:1,2008-09-10T06:00:00Z,29.4412,-92.0613,28.26,11111222 
WAVCIS,ioos:station:WAVCIS:CSI03:1,2008-09-10T07:00:00Z,29.4412,-92.0613,28.28,11111222 
WAVCIS,ioos:station:WAVCIS:CSI03:1,2008-09-10T08:00:00Z,29.4412,-92.0613,28.14,11111222 
WAVCIS,ioos:station:WAVCIS:CSI03:1,2008-09-10T09:00:00Z,29.4412,-92.0613,28.03,11111222 
WAVCIS,ioos:station:WAVCIS:CSI03:1,2008-09-10T10:00:00Z,29.4412,-92.0613,27.72,11111222 
WAVCIS,ioos:station:WAVCIS:CSI03:1,2008-09-10T11:00:00Z,29.4412,-92.0613,27.36,11111222 
WAVCIS,ioos:station:WAVCIS:CSI03:1,2008-09-10T12:00:00Z,29.4412,-92.0613,27.23,11111222 
WAVCIS,ioos:station:WAVCIS:CSI03:1,2008-09-10T13:00:00Z,29.4412,-92.0613,27.25,11111222 
WAVCIS,ioos:station:WAVCIS:CSI03:1,2008-09-10T14:00:00Z,29.4412,-92.0613,27.37,11111222 
WAVCIS,ioos:station:WAVCIS:CSI03:1,2008-09-10T15:00:00Z,29.4412,-92.0613,27.57,11111222 
WAVCIS,ioos:station:WAVCIS:CSI03:1,2008-09-10T16:00:00Z,29.4412,-92.0613,27.41,11111222 
WAVCIS,ioos:station:WAVCIS:CSI03:1,2008-09-10T17:00:00Z,29.4412,-92.0613,28.09,11111222 
WAVCIS,ioos:station:WAVCIS:CSI03:1,2008-09-10T18:00:00Z,29.4412,-92.0613,28.9,11111222 
WAVCIS,ioos:station:WAVCIS:CSI03:1,2008-09-10T19:00:00Z,29.4412,-92.0613,29.38,11111222 
WAVCIS,ioos:station:WAVCIS:CSI03:1,2008-09-10T20:00:00Z,29.4412,-92.0613,29.94,11111222 
WAVCIS,ioos:station:WAVCIS:CSI03:1,2008-09-10T21:00:00Z,29.4412,-92.0613,30.54,11111222 
WAVCIS,ioos:station:WAVCIS:CSI03:1,2008-09-10T22:00:00Z,29.4412,-92.0613,31.28,11111222 
WAVCIS,ioos:station:WAVCIS:CSI03:1,2008-09-10T23:00:00Z,29.4412,-92.0613,30.35,11111222 
WAVCIS,ioos:station:WAVCIS:CSI03:1,2008-09-11T00:00:00Z,29.4412,-92.0613,30.27,11111222 
WAVCIS,ioos:station:WAVCIS:CSI03:1,2008-09-11T01:00:00Z,29.4412,-92.0613,30.2,11111222 
WAVCIS,ioos:station:WAVCIS:CSI03:1,2008-09-11T02:00:00Z,29.4412,-92.0613,30.55,11111222 
WAVCIS,ioos:station:WAVCIS:CSI03:1,2008-09-11T03:00:00Z,29.4412,-92.0613,30.21,11111222 
WAVCIS,ioos:station:WAVCIS:CSI03:1,2008-09-11T04:00:00Z,29.4412,-92.0613,29.71,11111222 
WAVCIS,ioos:station:WAVCIS:CSI03:1,2008-09-11T05:00:00Z,29.4412,-92.0613,29.3,11111222 
WAVCIS,ioos:station:WAVCIS:CSI03:1,2008-09-11T06:00:00Z,29.4412,-92.0613,28.71,11111222 
WAVCIS,ioos:station:WAVCIS:CSI03:1,2008-09-11T07:00:00Z,29.4412,-92.0613,28.46,11111222 
WAVCIS,ioos:station:WAVCIS:CSI03:1,2008-09-11T08:00:00Z,29.4412,-92.0613,28.32,11111222 
WAVCIS,ioos:station:WAVCIS:CSI03:1,2008-09-11T09:00:00Z,29.4412,-92.0613,27.81,11111222 
WAVCIS,ioos:station:WAVCIS:CSI03:1,2008-09-11T10:00:00Z,29.4412,-92.0613,27.77,11111222 
WAVCIS,ioos:station:WAVCIS:CSI03:1,2008-09-11T11:00:00Z,29.4412,-92.0613,28.43,11111222 
WAVCIS,ioos:station:WAVCIS:CSI03:1,2008-09-11T12:00:00Z,29.4412,-92.0613,27.69,11111222 
WAVCIS,ioos:station:WAVCIS:CSI03:1,2008-09-11T13:00:00Z,29.4412,-92.0613,27.68,11111222 
WAVCIS,ioos:station:WAVCIS:CSI03:1,2008-09-11T14:00:00Z,29.4412,-92.0613,28.18,11111222 
WAVCIS,ioos:station:WAVCIS:CSI03:1,2008-09-11T15:00:00Z,29.4412,-92.0613,28.38,11111222 
WAVCIS,ioos:station:WAVCIS:CSI03:1,2008-09-11T16:00:00Z,29.4412,-92.0613,28.79,11111222 
WAVCIS,ioos:station:WAVCIS:CSI03:1,2008-09-11T17:00:00Z,29.4412,-92.0613,28.94,11111222 
WAVCIS,ioos:station:WAVCIS:CSI03:1,2008-09-11T18:00:00Z,29.4412,-92.0613,29.22,11111222 
WAVCIS,ioos:station:WAVCIS:CSI03:1,2008-09-11T19:00:00Z,29.4412,-92.0613,30.09,11111222 
WAVCIS,ioos:station:WAVCIS:CSI03:1,2008-09-11T20:00:00Z,29.4412,-92.0613,30.31,11111222 
WAVCIS,ioos:station:WAVCIS:CSI03:1,2008-09-11T21:00:00Z,29.4412,-92.0613,30.74,11111222 
WAVCIS,ioos:station:WAVCIS:CSI03:1,2008-09-11T22:00:00Z,29.4412,-92.0613,30.38,11111222 
WAVCIS,ioos:station:WAVCIS:CSI03:1,2008-09-11T23:00:00Z,29.4412,-92.0613,29.13,11111222 
WAVCIS,ioos:station:WAVCIS:CSI03:1,2008-09-12T00:00:00Z,29.4412,-92.0613,29.7,11111222 
WAVCIS,ioos:station:WAVCIS:CSI03:1,2008-09-12T01:00:00Z,29.4412,-92.0613,28.92,11111222 
WAVCIS,ioos:station:WAVCIS:CSI03:1,2008-09-12T02:00:00Z,29.4412,-92.0613,28.63,11111222 
WAVCIS,ioos:station:WAVCIS:CSI03:1,2008-09-12T03:00:00Z,29.4412,-92.0613,28.76,11111222 
WAVCIS,ioos:station:WAVCIS:CSI03:1,2008-09-12T04:00:00Z,29.4412,-92.0613,27.75,11111222 
WAVCIS,ioos:station:WAVCIS:CSI03:1,2008-09-12T05:00:00Z,29.4412,-92.0613,28.64,11111222 
WAVCIS,ioos:station:WAVCIS:CSI03:1,2008-09-12T06:00:00Z,29.4412,-92.0613,27.99,11111222 
WAVCIS,ioos:station:WAVCIS:CSI03:1,2008-09-12T07:00:00Z,29.4412,-92.0613,27.67,11111222 
WAVCIS,ioos:station:WAVCIS:CSI03:1,2008-09-12T08:00:00Z,29.4412,-92.0613,26.67,11111222 
WAVCIS,ioos:station:WAVCIS:CSI03:1,2008-09-12T09:00:00Z,29.4412,-92.0613,28.53,11111222 
WAVCIS,ioos:station:WAVCIS:CSI03:1,2008-09-12T10:00:00Z,29.4412,-92.0613,28.4,11111222 
WAVCIS,ioos:station:WAVCIS:CSI03:1,2008-09-12T11:00:00Z,29.4412,-92.0613,28.57,11111222 
WAVCIS,ioos:station:WAVCIS:CSI03:1,2008-09-12T12:00:00Z,29.4412,-92.0613,28.9,11111222 
WAVCIS,ioos:station:WAVCIS:CSI03:1,2008-09-12T13:00:00Z,29.4412,-92.0613,28.96,11111222 
WAVCIS,ioos:station:WAVCIS:CSI03:1,2008-09-12T14:00:00Z,29.4412,-92.0613,29.02,11111222 
WAVCIS,ioos:station:WAVCIS:CSI03:1,2008-09-12T15:00:00Z,29.4412,-92.0613,28.98,11111222 
WAVCIS,ioos:station:WAVCIS:CSI03:1,2008-09-12T16:00:00Z,29.4412,-92.0613,29.05,11111222 
WAVCIS,ioos:station:WAVCIS:CSI03:1,2008-09-12T17:00:00Z,29.4412,-92.0613,28.44,11111222 
WAVCIS,ioos:station:WAVCIS:CSI03:1,2008-09-12T18:00:00Z,29.4412,-92.0613,27.01,11111222 
WAVCIS,ioos:station:WAVCIS:CSI03:1,2008-09-12T19:00:00Z,29.4412,-92.0613,26.56,11111222 
WAVCIS,ioos:station:WAVCIS:CSI03:1,2008-09-12T20:00:00Z,29.4412,-92.0613,26.89,11111222 
WAVCIS,ioos:station:WAVCIS:CSI03:1,2008-09-12T21:00:00Z,29.4412,-92.0613,26.58,11111222 
WAVCIS,ioos:station:WAVCIS:CSI03:1,2008-09-12T22:00:00Z,29.4412,-92.0613,27.82,11111222 
WAVCIS,ioos:station:WAVCIS:CSI03:1,2008-09-12T23:00:00Z,29.4412,-92.0613,28.42,11111222 
WAVCIS,ioos:station:WAVCIS:CSI03:1,2008-09-13T00:00:00Z,29.4412,-92.0613,28.03,11111222 
WAVCIS,ioos:station:WAVCIS:CSI03:1,2008-09-13T01:00:00Z,29.4412,-92.0613,28.13,11111222 
WAVCIS,ioos:station:WAVCIS:CSI03:1,2008-09-13T02:00:00Z,29.4412,-92.0613,27.87,11111222 
WAVCIS,ioos:station:WAVCIS:CSI03:1,2008-09-13T03:00:00Z,29.4412,-92.0613,28.19,11111222 
WAVCIS,ioos:station:WAVCIS:CSI03:1,2008-09-13T04:00:00Z,29.4412,-92.0613,28.2,11111222 
WAVCIS,ioos:station:WAVCIS:CSI03:1,2008-09-13T05:00:00Z,29.4412,-92.0613,28.57,11111222 
WAVCIS,ioos:station:WAVCIS:CSI03:1,2008-09-13T06:00:00Z,29.4412,-92.0613,28.48,11111222 
WAVCIS,ioos:station:WAVCIS:CSI03:1,2008-09-13T07:00:00Z,29.4412,-92.0613,28.36,11111222 
WAVCIS,ioos:station:WAVCIS:CSI03:1,2008-09-13T08:00:00Z,29.4412,-92.0613,27.37,11111222 
WAVCIS,ioos:station:WAVCIS:CSI03:1,2008-09-13T09:00:00Z,29.4412,-92.0613,28.32,11111222 
WAVCIS,ioos:station:WAVCIS:CSI03:1,2008-09-13T10:00:00Z,29.4412,-92.0613,28.16,11111222 
WAVCIS,ioos:station:WAVCIS:CSI03:1,2008-09-13T11:00:00Z,29.4412,-92.0613,28.14,11111222 
WAVCIS,ioos:station:WAVCIS:CSI03:1,2008-09-13T12:00:00Z,29.4412,-92.0613,28.09,11111222 
WAVCIS,ioos:station:WAVCIS:CSI03:1,2008-09-13T13:00:00Z,29.4412,-92.0613,28.19,11111222 
WAVCIS,ioos:station:WAVCIS:CSI03:1,2008-09-13T14:00:00Z,29.4412,-92.0613,28.37,11111222 
WAVCIS,ioos:station:WAVCIS:CSI03:1,2008-09-13T15:00:00Z,29.4412,-92.0613,28.5,11111222 
WAVCIS,ioos:station:WAVCIS:CSI03:1,2008-09-13T16:00:00Z,29.4412,-92.0613,28.69,11111222 
WAVCIS,ioos:station:WAVCIS:CSI03:1,2008-09-13T17:00:00Z,29.4412,-92.0613,29.21,11111222 
WAVCIS,ioos:station:WAVCIS:CSI03:1,2008-09-13T18:00:00Z,29.4412,-92.0613,29.61,11111222 
WAVCIS,ioos:station:WAVCIS:CSI03:1,2008-09-13T19:00:00Z,29.4412,-92.0613,30.02,11111222 
WAVCIS,ioos:station:WAVCIS:CSI03:1,2008-09-13T20:00:00Z,29.4412,-92.0613,30.11,11111222 
WAVCIS,ioos:station:WAVCIS:CSI03:1,2008-09-13T21:00:00Z,29.4412,-92.0613,29.58,11111222 
WAVCIS,ioos:station:WAVCIS:CSI03:1,2008-09-13T22:00:00Z,29.4412,-92.0613,29.97,11111222 
WAVCIS,ioos:station:WAVCIS:CSI03:1,2008-09-13T23:00:00Z,29.4412,-92.0613,30.03,11111222 
WAVCIS,ioos:station:WAVCIS:CSI03:1,2008-09-14T00:00:00Z,29.4412,-92.0613,30.71,11111222 